アトラス彗星

C/2019 E3 ( ATLAS )

English version
Home page
Updated on May 2, 2021

---------------------------------------------------------------------

・ プロフィール

発見日 2019年3月5日
発見光度 18.4等
発見者 Asteroid Terrestrial-Impact Last Alert System (ATLAS) search program

・ 写真集

・ 軌道要素

Epoch 2023 Dec. 2.0 TT = JDT 2460280.5
T 2023 Nov. 15.28161 TT                                 Rudenko
q  10.3128926            (2000.0)            P               Q
z  +0.0001256      Peri.  280.69988     +0.15950404     +0.96239674
 +/-0.0000017      Node   347.23331     +0.26394109     -0.25620579
e   0.9987043      Incl.   84.29885     -0.95125894     +0.09028345
From 110 observations 2015 Jan. 22-2021 Mar. 13, mean residual 0".5.

・ 星図

・ 光度変化

        m1 = 2.5 + 5 logΔ + 10.0 log r

---------------------------------------------------------------------

軌道要素はM.P.E.C. 2021-F20に掲載されたものです。
星図はステラナビゲータ Ver.10 (アストロアーツ) で作成したものです。
光度グラフはComet for Windowsで作成したものです。

---------------------------------------------------------------------

Copyright(C) Seiichi Yoshida (comet@aerith.net). All rights reserved.